Wind_Speed
26 27 27 28 28 29 29 29 28 27 26 25 26 26 27 26 25 24 24 23 22 21 20 19 19 19 18 17 17 16 16 15 15 14 14 14 13 13 13 13 13 13 12 12 12 11 11 11 11
26 27 27 28 29 29 29 28 29 28 27 27 27 27 28 28 27 26 25 25 24 23 22 22 21 20 20 19 19 18 18 17 16 16 16 15 15 14 14 14 14 14 13 13 13 13 12 12 13
25 25 26 27 28 28 28 27 28 28 28 28 29 29 29 29 29 28 27 26 26 25 24 23 23 22 22 21 21 20 19 19 18 17 17 17 16 15 15 15 15 15 14 14 14 14 14 14 14
24 24 25 26 27 27 27 27 29 28 28 29 30 30 30 31 31 30 30 28 28 26 26 25 24 24 23 23 22 21 20 20 19 19 18 18 17 17 16 16 16 16 15 15 15 15 15 16 16
22 23 25 26 25 25 26 28 29 29 28 29 30 30 30 31 31 32 31 31 29 28 27 26 26 25 25 24 24 23 22 21 20 20 20 19 19 18 18 18 17 17 17 17 17 16 17 17 17
21 22 23 25 25 25 25 26 28 28 27 28 29 30 29 30 31 32 32 32 30 29 28 27 27 26 26 26 25 24 24 23 22 22 21 21 20 20 19 19 19 19 19 19 18 18 18 18 18
20 21 22 23 24 24 24 25 27 27 27 28 29 29 29 30 30 31 32 32 31 30 29 28 28 27 27 26 26 26 25 24 24 24 23 22 22 21 21 20 20 20 20 20 19 19 19 19 19
19 21 22 23 23 22 23 25 26 27 28 28 30 30 29 30 30 31 32 32 32 32 31 30 29 28 28 27 27 26 26 26 25 25 25 24 24 23 22 22 22 21 22 21 21 21 21 21 20
19 21 21 22 22 21 22 25 26 26 27 28 29 29 29 30 30 31 32 32 31 32 33 32 30 30 29 29 28 28 28 28 28 27 27 26 26 25 24 23 23 23 23 23 22 22 22 22 22
19 19 19 20 21 21 22 23 25 25 26 28 28 29 29 30 31 31 31 33 32 33 33 32 32 31 30 30 30 30 30 30 29 29 28 28 27 27 26 25 25 24 24 24 23 23 23 24 24
16 17 18 19 21 21 22 23 24 25 26 27 28 28 30 30 32 31 31 32 32 33 33 33 32 32 32 31 31 32 31 31 30 30 30 29 29 28 27 26 26 26 25 25 26 25 26 26 26
14 15 16 18 19 21 23 22 23 24 24 25 27 27 29 29 30 30 31 32 31 32 34 34 33 33 33 32 33 33 33 32 32 31 31 31 30 29 29 28 28 28 27 27 28 28 28 28 28
14 14 15 17 18 19 21 22 21 22 23 25 26 27 27 28 28 30 32 34 34 32 35 36 35 34 34 33 32 33 34 34 34 33 33 32 31 31 30 30 29 29 29 29 30 30 30 30 29
14 14 15 16 17 19 20 21 22 21 23 25 26 26 26 27 27 29 31 32 33 33 35 36 36 35 35 35 34 34 35 35 35 34 33 33 33 33 33 33 33 33 32 32 32 32 32 31 31
14 14 16 17 18 18 19 20 21 21 23 25 25 26 25 27 26 27 29 31 32 33 35 36 36 36 36 34 33 35 35 35 34 34 34 33 34 33 34 34 35 35 33 33 34 34 34 33 33
15 15 15 16 17 18 18 17 18 19 21 23 25 26 25 27 27 27 28 29 30 32 35 37 37 36 36 35 33 34 35 35 35 35 35 34 34 35 35 36 36 35 35 35 35 35 34 35 35
15 15 15 15 16 17 17 16 17 18 19 21 22 23 24 25 26 27 28 28 28 30 34 36 36 36 35 37 34 33 35 36 36 36 36 36 35 36 37 37 37 37 37 37 36 36 35 35 36
14 14 14 14 15 17 17 16 16 18 19 20 20 21 22 23 25 26 27 29 28 29 32 34 35 35 35 36 34 33 34 35 36 36 36 37 37 36 37 38 38 38 38 38 37 36 37 36 37
14 13 14 14 15 16 16 16 16 17 18 19 19 19 19 21 23 25 26 28 29 29 30 31 33 33 33 33 34 33 34 35 36 36 37 38 38 38 38 37 38 39 39 39 38 38 37 37 38
14 14 14 14 16 16 16 16 16 17 17 17 18 18 19 20 21 23 25 25 26 27 29 31 31 32 32 32 33 33 33 35 35 36 36 37 38 39 39 39 39 38 38 39 39 39 37 38 38
14 15 15 15 15 16 17 16 17 16 17 17 17 18 19 20 22 22 24 25 26 27 28 29 29 31 32 33 33 33 33 35 36 37 37 37 38 39 39 40 39 39 40 40 40 39 38 38 38
15 16 16 16 16 16 17 17 16 17 17 18 18 19 20 21 23 23 24 24 24 26 28 29 29 30 31 33 34 34 33 34 35 36 37 38 39 40 40 40 40 40 40 41 41 41 41 40 40
17 17 17 17 17 16 17 17 16 17 18 18 18 19 20 21 22 24 23 23 24 26 26 27 28 29 31 32 33 33 33 34 35 36 37 38 38 39 40 40 41 41 40 41 42 43 43 42 42
18 19 19 19 18 18 17 17 16 16 17 18 18 19 20 20 21 23 24 24 25 25 26 27 27 28 30 32 33 33 33 34 35 35 36 37 38 39 40 40 40 41 41 42 42 43 43 43 42
20 20 20 21 20 19 18 18 16 16 16 17 17 18 19 19 20 21 23 24 25 25 26 27 27 28 30 31 31 32 34 34 35 36 36 37 38 39 40 40 40 40 41 42 43 43 43 44 44
21 21 22 22 22 20 19 19 17 17 16 17 18 18 18 19 20 20 21 23 23 24 25 26 27 29 30 31 31 32 33 34 35 36 37 38 39 39 40 40 40 41 42 43 43 43 44 45 45
22 23 23 23 24 23 21 20 18 18 17 18 18 19 20 20 20 20 21 22 23 23 25 26 27 28 30 31 31 32 32 33 34 36 37 38 39 40 40 41 41 42 42 43 44 43 44 45 45
24 24 24 24 25 25 24 22 20 19 18 19 19 20 21 22 22 22 22 22 24 25 27 27 28 28 30 32 32 32 33 34 35 36 37 37 38 39 40 40 40 41 42 43 43 44 44 44 45
26 26 26 26 26 26 26 23 21 20 20 21 22 23 23 24 24 23 24 24 25 27 28 28 29 30 31 32 33 33 34 34 34 35 36 37 38 38 39 40 41 42 42 42 43 44 45 46 46
27 27 27 27 27 27 26 24 22 22 22 23 23 24 25 25 25 25 25 26 26 27 28 29 30 31 32 33 33 34 35 35 35 35 36 37 38 39 40 41 42 43 43 44 45 45 46 46 46
Wind_Direction
260 256 253 250 248 248 247 247 248 249 249 248 248 247 245 244 242 242 242 240 238 234 231 230 232 233 234 236 238 240 242 245 247 249 250 251 253 255 256 256 255 256 259 261 262 262 265 268 270
260 255 252 249 248 248 247 247 248 250 250 249 248 247 246 245 243 242 241 241 239 237 235 233 234 235 236 237 238 240 243 245 247 248 250 251 253 256 256 255 255 257 260 261 262 264 266 268 270
259 254 250 248 248 250 249 247 250 249 249 249 248 247 247 246 244 243 242 241 238 238 237 235 235 235 237 237 238 240 243 245 245 247 249 251 252 254 255 254 255 257 259 261 264 267 268 269 271
258 252 249 249 251 252 251 251 251 251 250 250 249 247 246 245 244 243 242 242 238 235 237 237 237 236 237 237 238 241 243 244 246 246 248 249 251 253 254 255 256 257 259 262 265 269 270 271 273
257 253 251 252 254 255 253 253 252 252 252 250 249 247 246 244 243 241 241 240 238 234 234 236 238 238 237 237 239 241 242 244 246 247 248 249 251 252 253 255 257 258 260 263 266 269 272 273 274
258 256 255 255 256 257 254 254 252 251 251 249 248 247 245 243 242 240 239 240 235 233 233 235 236 237 237 237 238 240 241 243 245 247 248 249 251 252 253 255 257 259 261 263 265 268 271 274 275
261 259 258 258 259 258 256 254 252 252 251 249 247 246 244 243 242 240 238 236 233 230 231 233 233 234 236 236 238 239 241 242 244 247 248 249 251 253 255 257 258 259 261 263 266 268 271 274 276
265 263 260 260 260 259 258 255 253 253 252 250 247 246 243 241 241 240 238 236 233 229 229 229 231 232 234 236 238 239 241 242 244 246 248 250 251 253 254 257 258 259 261 263 265 268 271 273 275
271 265 261 260 261 258 260 258 255 255 253 250 247 247 243 240 239 240 238 234 232 229 228 229 231 232 234 237 239 241 242 243 245 246 247 249 251 252 254 256 257 259 261 263 265 267 270 272 274
274 266 263 261 261 261 264 262 258 258 254 248 246 245 243 240 237 237 235 232 231 229 227 229 232 234 235 237 239 242 243 244 245 247 247 249 250 252 253 255 257 259 261 263 264 267 270 272 274
276 272 266 264 265 265 265 264 263 260 253 246 245 245 243 241 239 236 234 232 231 230 228 229 233 236 236 238 240 242 243 245 247 248 247 248 250 251 253 255 257 258 261 264 265 267 270 272 273
283 277 273 270 270 268 267 269 265 260 253 248 247 247 243 240 236 235 235 231 230 231 229 230 232 236 236 237 240 242 244 247 248 248 248 249 250 251 253 255 257 258 261 264 266 267 270 272 273
284 283 279 277 276 275 273 271 269 260 255 251 249 249 243 239 239 237 234 232 231 233 231 230 232 236 237 238 242 243 245 247 248 249 249 249 250 251 252 254 257 260 262 264 266 267 269 271 272
290 287 283 281 279 279 277 274 269 262 256 251 249 248 245 239 238 237 235 234 233 234 233 232 233 235 238 240 243 243 245 246 247 249 250 250 250 252 252 255 258 260 263 266 266 268 270 271 271
293 289 286 284 281 279 277 275 271 263 257 254 252 249 249 244 240 240 237 236 237 236 235 234 235 236 238 241 245 244 245 245 246 247 248 251 252 254 254 255 258 259 261 264 266 268 270 271 271
295 290 287 285 283 280 277 276 273 265 259 256 253 252 251 248 244 242 240 239 238 238 236 235 236 237 239 241 247 248 246 245 246 247 249 251 252 253 255 256 258 259 261 264 266 267 269 270 270
296 290 289 286 283 281 280 277 276 271 264 260 256 254 250 249 246 244 242 241 242 242 239 239 238 239 242 244 250 250 249 247 246 248 250 251 253 255 255 256 258 259 261 264 266 266 268 270 271
301 294 291 289 285 283 281 277 277 275 269 265 261 259 254 251 246 247 245 245 245 244 241 241 240 242 245 248 250 251 250 248 247 248 249 251 254 256 257 257 259 260 261 263 265 266 268 270 272
305 303 295 290 286 286 283 279 276 275 273 268 263 260 256 252 250 251 250 248 247 246 243 244 243 243 245 247 249 250 248 247 247 248 250 252 254 255 258 260 261 261 261 263 265 267 269 270 271
307 304 299 292 288 288 286 282 277 275 272 268 264 260 254 252 251 252 250 249 247 247 245 245 244 244 244 246 248 247 248 248 249 249 251 252 254 255 257 260 262 263 263 265 265 267 270 271 271
307 305 302 295 290 289 285 279 277 274 275 272 269 261 257 254 253 252 250 249 249 249 248 247 246 245 246 247 249 248 250 251 250 251 253 254 256 257 260 261 261 263 265 265 266 268 270 272 272
306 306 304 301 297 294 290 284 279 280 280 275 269 263 259 257 255 253 249 250 251 249 248 248 248 248 248 250 251 251 252 252 252 254 255 256 257 259 260 261 261 263 265 265 266 268 270 272 273
304 304 303 301 300 298 295 291 284 281 279 273 267 264 261 259 256 252 248 251 253 250 250 250 251 252 251 253 252 252 255 255 256 256 257 258 259 260 261 262 263 264 266 267 268 269 271 272 272
302 301 300 298 298 297 295 294 290 285 281 273 266 266 264 261 256 253 252 255 256 253 252 253 255 255 255 256 255 255 257 258 258 259 259 259 260 261 262 263 264 265 267 269 270 271 271 272 272
298 300 299 297 296 296 294 293 293 290 284 277 272 269 266 265 260 257 256 259 259 256 255 256 256 257 258 258 259 259 259 260 259 261 261 261 262 262 263 264 265 267 269 271 271 272 272 272 272
296 297 298 297 296 294 290 291 292 289 284 279 276 272 267 266 263 261 260 260 259 257 256 258 258 257 258 259 262 262 261 261 262 262 263 263 263 264 264 265 266 268 270 272 272 272 272 273 273
292 294 295 294 293 291 290 290 289 288 283 280 278 274 268 266 266 265 262 261 260 257 258 261 260 259 258 259 262 264 265 266 266 266 267 266 266 265 266 266 267 269 272 273 273 273 273 274 274
290 291 292 291 292 292 291 292 289 287 282 279 277 275 273 268 267 266 264 263 263 262 261 262 262 262 262 262 262 264 265 266 267 269 268 268 268 267 267 268 269 270 273 274 274 275 275 275 275
287 288 288 287 287 289 290 291 289 286 283 279 277 276 274 271 267 266 265 265 265 265 263 263 263 264 264 265 263 264 265 266 267 268 269 270 270 270 270 270 270 272 273 274 275 276 276 276 275
283 285 285 285 285 285 286 287 285 283 282 280 278 277 276 274 270 268 267 267 267 267 265 264 264 264 265 266 266 266 268 268 269 270 271 272 273 273 273 273 274 274 274 275 276 277 278 277 276
Height
5816 5817 5818 5820 5822 5822 5824 5827 5828 5830 5832 5833 5834 5836 5837 5839 5842 5845 5845 5846 5848 5850 5852 5853 5855 5857 5858 5859 5861 5862 5863 5864 5864 5865 5865 5866 5866 5867 5867 5867 5867 5867 5867 5867 5867 5867 5867 5867 5867
5809 5810 5812 5813 5814 5815 5818 5820 5822 5824 5826 5827 5829 5830 5831 5833 5835 5838 5840 5842 5844 5846 5848 5849 5851 5853 5855 5856 5857 5859 5860 5861 5862 5862 5863 5863 5864 5864 5864 5865 5865 5865 5865 5865 5865 5865 5865 5865 5864
5803 5804 5806 5806 5807 5810 5812 5814 5816 5817 5818 5820 5822 5823 5825 5827 5829 5832 5834 5836 5839 5841 5843 5845 5847 5849 5851 5852 5854 5855 5856 5857 5858 5859 5860 5861 5861 5862 5862 5862 5862 5863 5863 5863 5863 5863 5862 5862 5862
5796 5798 5799 5800 5801 5804 5806 5807 5809 5810 5811 5813 5814 5816 5819 5821 5823 5826 5828 5830 5833 5836 5838 5840 5842 5844 5846 5848 5850 5851 5852 5854 5855 5856 5857 5857 5858 5859 5859 5859 5860 5860 5860 5860 5860 5860 5860 5859 5859
5790 5791 5793 5794 5795 5797 5799 5800 5801 5803 5804 5806 5807 5809 5812 5814 5816 5819 5821 5824 5827 5830 5832 5835 5837 5839 5841 5843 5845 5847 5848 5850 5851 5852 5853 5854 5855 5855 5856 5856 5857 5857 5857 5857 5857 5857 5857 5856 5856
5786 5786 5787 5788 5790 5791 5792 5793 5794 5796 5797 5799 5800 5803 5805 5807 5809 5812 5814 5817 5820 5823 5826 5829 5831 5834 5836 5838 5840 5842 5844 5846 5847 5848 5849 5850 5851 5852 5852 5853 5853 5853 5854 5854 5854 5854 5853 5853 5852
5781 5781 5782 5783 5784 5785 5786 5786 5787 5789 5790 5792 5793 5795 5798 5800 5802 5804 5807 5810 5813 5817 5820 5823 5826 5828 5831 5833 5836 5838 5839 5841 5842 5844 5845 5846 5847 5848 5848 5849 5849 5849 5850 5850 5850 5850 5850 5849 5849
5776 5777 5776 5777 5778 5779 5779 5780 5780 5782 5784 5785 5786 5788 5791 5793 5795 5797 5799 5802 5806 5809 5813 5816 5819 5822 5825 5828 5830 5832 5834 5836 5837 5839 5840 5841 5842 5843 5844 5844 5845 5845 5846 5846 5846 5846 5846 5845 5845
5771 5772 5771 5772 5772 5773 5773 5774 5774 5775 5776 5777 5778 5781 5783 5785 5787 5789 5791 5795 5798 5802 5805 5809 5812 5816 5819 5822 5824 5826 5828 5830 5832 5833 5835 5836 5837 5838 5839 5840 5840 5841 5841 5841 5841 5841 5841 5841 5840
5767 5766 5767 5767 5767 5767 5767 5767 5767 5768 5768 5770 5771 5773 5775 5777 5779 5780 5783 5787 5790 5794 5798 5802 5806 5809 5812 5815 5817 5820 5822 5824 5826 5828 5829 5831 5832 5833 5834 5834 5835 5836 5836 5837 5837 5837 5837 5836 5836
5762 5761 5762 5761 5761 5761 5761 5761 5760 5760 5761 5763 5764 5765 5767 5768 5771 5772 5775 5778 5783 5787 5791 5795 5798 5801 5804 5807 5810 5813 5815 5818 5820 5821 5823 5824 5826 5827 5828 5829 5830 5830 5831 5831 5832 5832 5831 5831 5831
5758 5757 5757 5756 5756 5755 5755 5754 5754 5754 5755 5756 5757 5758 5760 5761 5763 5765 5768 5771 5775 5779 5783 5787 5791 5794 5797 5799 5802 5805 5808 5810 5812 5814 5816 5818 5819 5821 5822 5823 5824 5825 5825 5826 5826 5826 5826 5826 5825
5755 5754 5752 5751 5750 5749 5749 5748 5747 5748 5749 5749 5750 5751 5752 5754 5756 5758 5760 5764 5768 5771 5775 5779 5783 5787 5790 5792 5794 5797 5800 5803 5805 5807 5809 5811 5812 5814 5815 5817 5818 5819 5819 5819 5820 5820 5820 5819 5819
5752 5750 5748 5746 5745 5744 5743 5742 5741 5742 5743 5743 5744 5745 5746 5747 5749 5751 5753 5756 5760 5764 5767 5771 5775 5779 5782 5785 5787 5790 5792 5795 5797 5799 5802 5803 5805 5807 5808 5810 5811 5812 5812 5813 5813 5813 5813 5813 5812
5747 5746 5744 5742 5740 5739 5738 5738 5736 5736 5736 5737 5738 5739 5740 5741 5743 5744 5746 5749 5753 5756 5760 5764 5767 5771 5774 5777 5779 5781 5784 5786 5789 5791 5793 5795 5797 5799 5801 5802 5803 5804 5805 5805 5805 5805 5805 5805 5805
5743 5742 5740 5738 5736 5734 5734 5733 5732 5730 5730 5731 5732 5733 5734 5735 5737 5738 5740 5742 5746 5749 5753 5756 5759 5762 5766 5769 5771 5773 5775 5777 5780 5783 5785 5787 5789 5790 5792 5793 5795 5796 5796 5797 5797 5797 5797 5797 5797
5739 5737 5735 5734 5732 5730 5728 5728 5726 5725 5725 5726 5726 5727 5728 5729 5731 5732 5734 5736 5739 5742 5745 5748 5751 5755 5758 5761 5763 5764 5767 5769 5771 5774 5776 5778 5779 5781 5783 5784 5786 5787 5788 5788 5789 5788 5789 5789 5788
5736 5733 5731 5729 5728 5726 5724 5723 5722 5721 5721 5721 5721 5722 5722 5724 5725 5726 5728 5730 5733 5736 5738 5742 5745 5748 5750 5753 5754 5756 5758 5760 5762 5765 5767 5769 5770 5772 5773 5775 5776 5778 5779 5779 5779 5780 5780 5780 5779
5732 5729 5728 5726 5724 5722 5720 5719 5718 5717 5716 5716 5716 5717 5718 5719 5720 5721 5723 5725 5727 5729 5732 5735 5737 5740 5743 5745 5746 5748 5749 5751 5753 5755 5758 5760 5761 5763 5764 5766 5767 5768 5769 5770 5770 5770 5770 5770 5770
5729 5726 5725 5723 5720 5718 5717 5716 5714 5713 5712 5712 5712 5712 5713 5714 5715 5717 5718 5720 5721 5723 5725 5728 5730 5733 5735 5737 5738 5740 5741 5743 5744 5746 5748 5750 5752 5754 5755 5757 5758 5759 5759 5760 5761 5761 5760 5760 5760
5726 5724 5722 5719 5717 5715 5713 5712 5710 5709 5708 5707 5707 5707 5708 5709 5710 5711 5712 5714 5715 5717 5719 5721 5723 5725 5727 5729 5730 5732 5733 5735 5736 5738 5740 5741 5743 5744 5746 5747 5748 5749 5750 5750 5751 5751 5751 5751 5750
5723 5721 5718 5715 5713 5712 5710 5708 5707 5705 5704 5703 5702 5702 5703 5704 5705 5706 5707 5708 5710 5711 5713 5715 5717 5718 5720 5722 5723 5725 5726 5727 5728 5730 5731 5733 5734 5736 5737 5738 5738 5739 5740 5740 5741 5741 5741 5741 5741
5720 5717 5715 5712 5710 5708 5706 5704 5705 5702 5700 5699 5698 5698 5698 5699 5700 5701 5702 5703 5704 5705 5707 5708 5710 5712 5714 5715 5716 5717 5718 5719 5720 5722 5723 5724 5725 5727 5728 5728 5729 5730 5730 5730 5730 5730 5730 5730 5730
5716 5714 5711 5708 5706 5705 5703 5701 5700 5698 5696 5695 5694 5694 5694 5694 5695 5695 5696 5697 5698 5699 5701 5702 5703 5705 5707 5708 5709 5710 5711 5712 5713 5713 5714 5715 5717 5718 5718 5719 5719 5720 5720 5720 5720 5719 5719 5719 5719
5712 5710 5707 5704 5702 5701 5699 5697 5697 5694 5692 5691 5690 5690 5689 5689 5690 5690 5691 5692 5693 5694 5695 5696 5697 5698 5699 5701 5702 5703 5703 5704 5705 5705 5706 5707 5708 5708 5709 5709 5710 5710 5710 5710 5710 5709 5709 5708 5708
5706 5705 5703 5700 5698 5696 5694 5692 5693 5690 5688 5687 5686 5685 5685 5684 5685 5685 5686 5686 5687 5688 5689 5690 5690 5691 5692 5694 5694 5695 5695 5696 5697 5697 5698 5698 5698 5699 5699 5699 5700 5700 5700 5699 5699 5699 5698 5698 5697
5701 5699 5697 5695 5692 5691 5690 5688 5688 5685 5684 5683 5682 5681 5680 5680 5679 5680 5680 5681 5681 5682 5682 5683 5683 5684 5685 5686 5686 5687 5687 5688 5688 5688 5689 5689 5689 5689 5689 5689 5689 5689 5689 5689 5688 5688 5687 5686 5685
5696 5694 5692 5689 5686 5684 5684 5683 5682 5681 5680 5679 5677 5676 5676 5675 5675 5674 5674 5674 5675 5675 5675 5676 5676 5677 5677 5678 5679 5679 5679 5679 5679 5679 5679 5679 5679 5679 5679 5679 5679 5678 5678 5678 5677 5676 5675 5674 5673
5690 5688 5685 5683 5681 5679 5677 5680 5677 5675 5674 5673 5672 5670 5670 5669 5668 5668 5668 5668 5668 5668 5668 5668 5669 5669 5669 5670 5670 5670 5670 5670 5670 5670 5670 5670 5669 5669 5669 5668 5668 5667 5667 5666 5665 5664 5663 5662 5661
5682 5681 5679 5677 5675 5673 5671 5675 5671 5669 5667 5666 5665 5664 5663 5662 5662 5661 5661 5660 5660 5660 5660 5661 5661 5661 5661 5661 5661 5661 5661 5661 5661 5660 5660 5659 5659 5659 5658 5657 5657 5656 5655 5654 5653 5652 5651 5649 5648